Home   Weather   Kohtla-Järve   Past weeks
Flag for Estonia

Past Weather in Kohtla-Järve, Estonia — Yesterday and Last 2 Weeks

Now
61 °F

Partly sunny.


Feels Like: 61 °F
Forecast: 66 / 52 °F
Wind: 2 mph from West

Location: Johvi

Current Time: Aug 24, 2019 at 10:03:19 am

Latest Report: Aug 24, 2019 at 9:00 am


Visibility: 13 mi

Pressure: 30.12 "Hg

Humidity: 92%

Dew Point: 58 °F

Location of Kohtla-JärveLocation

Past Weather in Kohtla-Järve — Graph

°F

Kohtla-Järve Temperature Yesterday

Maximum temperature yesterday: 70 °F (at 2:00 pm)
Minimum temperature yesterday: 50 °F (at 4:00 am)
Average temperature yesterday: 59 °F

High & Low Weather Summary for the Past Weeks

 TemperatureHumidityPressure
High73 °F (Aug 19, 4:00 pm)100% (Aug 9, 11:00 pm)30.31 "Hg (Aug 9, 11:00 pm)
Low44 °F (Aug 16, 5:00 am)41% (Aug 18, 3:00 pm)29.64 "Hg (Aug 9, 8:00 am)
Average60 °F84%29.97 "Hg
* Reported Aug 9 8:00 am — Aug 24 8:00 am, Kohtla-Järve. Weather by CustomWeather, © 2019

Note: Actual official high and low records may vary slightly from our data, if they occured in-between our weather recording intervals... More about our weather records

Advertising

Kohtla-Järve Weather History for the Previous 24 Hours

Scroll right to see more
 ConditionsComfort  
Time TempWeatherWind HumidityBarometerVisibility
8:00 am
Sat, Aug 24
60 °FScattered clouds.2 mph95%30.11 "Hg12 mi
7:00 am58 °FPassing clouds.2 mph99%30.10 "Hg12 mi
6:00 am58 °FLow clouds.2 mph99%30.09 "Hg12 mi
5:00 am58 °FLight rain. Low clouds.6 mph98%30.07 "Hg12 mi
4:00 am57 °FOvercast.5 mph99%30.06 "Hg12 mi
3:00 am57 °FLots of rain. Overcast.6 mph100%30.07 "Hg7 mi
2:00 am57 °FLight rain. Overcast.5 mph99%30.06 "Hg8 mi
1:00 am58 °FLots of rain. Overcast.6 mph97%30.08 "Hg7 mi
12:00 am59 °FRain showers. Overcast.5 mph98%30.07 "Hg12 mi
11:00 pm
Fri, Aug 23
60 °FLight rain. Overcast.6 mph96%30.07 "Hg6 mi
10:00 pm61 °FRain showers. Overcast.9 mph88%30.07 "Hg12 mi
9:00 pm60 °FRain showers. Overcast.6 mph94%30.09 "Hg12 mi
8:00 pm59 °FRain. Overcast.6 mph95%30.12 "Hg8 mi
7:00 pm61 °FRain. Overcast.6 mph90%30.16 "Hg11 mi
6:00 pm66 °FOvercast.7 mph63%30.16 "Hg12 mi
5:00 pm67 °FScattered clouds.8 mph59%30.19 "Hg12 mi
4:00 pm67 °FOvercast.7 mph60%30.21 "Hg12 mi
3:00 pm68 °FPartly sunny.9 mph58%30.23 "Hg12 mi
2:00 pm70 °FPassing clouds.8 mph50%30.24 "Hg12 mi
1:00 pm66 °FPartly sunny.8 mph60%30.25 "Hg12 mi
12:00 pm67 °FPartly sunny.8 mph56%30.26 "Hg12 mi
11:00 am64 °FPartly sunny.6 mph67%30.27 "Hg12 mi
10:00 am62 °FOvercast.7 mph78%30.28 "Hg12 mi
Weather by CustomWeather, © 2019

See weather overview